When you browse on this site, cookies collect data to enhance your experience and personalize the content and advertising you see.
Visit our Privacy Policy to learn more. By continuing to use the site, you agree to this use of cookies and data.
  • In Österreich
  • Länderverzeichnis
  • Für 7 Tage
  • Wassertemperatur
  • Satellitenkarten
  • Wetterkarte
  • News
  • Widgets
  • user-avatar
    Anmelden

    Stündliche Wetter Birmingham

    Heute, 18 Januar, Freitag

    Zeit Temperatur Niederschläge Wind Luftdruck Luftfeuchtigkeit
    00:00 +1°C° 0 mm 1 m/S 750 mmHg 73%
    01:00 +1°C° 0 mm 1 m/S 750 mmHg 73%
    02:00 -1°C° 0 mm 2 m/S 750 mmHg 73%
    03:00 -1°C° 0 mm 2 m/S 749 mmHg 73%
    04:00 -1°C° 0 mm 2 m/S 749 mmHg 73%
    05:00 -1°C° 0 mm 3 m/S 749 mmHg 72%
    06:00 -1°C° 0 mm 3 m/S 748 mmHg 72%
    07:00 -1°C° 0 mm 4 m/S 748 mmHg 71%
    08:00 -1°C° 0 mm 4 m/S 748 mmHg 70%
    09:00 -1°C° 0 mm 5 m/S 747 mmHg 70%
    10:00 0°C° 0.2 mm 5 m/S 747 mmHg 70%
    11:00 +1°C° 0.2 mm 6 m/S 747 mmHg 71%
    12:00 +2°C° 0.2 mm 6 m/S 746 mmHg 72%
    13:00 +2°C° 0.1 mm 7 m/S 746 mmHg 71%
    14:00 +2°C° 0.1 mm 7 m/S 745 mmHg 70%
    15:00 +2°C° 0.1 mm 7 m/S 744 mmHg 69%
    16:00 0°C° 0.6 mm 7 m/S 744 mmHg 73%
    17:00 0°C° 0.6 mm 7 m/S 744 mmHg 77%
    18:00 -1°C° 0.6 mm 7 m/S 744 mmHg 81%
    19:00 -1°C° 0.2 mm 7 m/S 744 mmHg 82%
    20:00 -1°C° 0.2 mm 7 m/S 744 mmHg 83%
    21:00 -1°C° 0.2 mm 6 m/S 743 mmHg 84%
    22:00 +1°C° 0.1 mm 6 m/S 743 mmHg 86%
    23:00 +1°C° 0.1 mm 6 m/S 743 mmHg 88%

    Morgen, 19 Januar, Samstag

    Zeit Temperatur Niederschläge Wind Luftdruck Luftfeuchtigkeit
    00:00 +1°C° 0.1 mm 6 m/S 743 mmHg 90%
    01:00 +1°C° 0.1 mm 6 m/S 742 mmHg 91%
    02:00 +1°C° 0.1 mm 6 m/S 742 mmHg 92%
    03:00 +1°C° 0.1 mm 5 m/S 742 mmHg 93%
    04:00 +1°C° 0.2 mm 5 m/S 742 mmHg 93%
    05:00 +1°C° 0.2 mm 5 m/S 741 mmHg 93%
    06:00 +1°C° 0.2 mm 5 m/S 741 mmHg 93%
    07:00 +1°C° 0.1 mm 4 m/S 741 mmHg 93%
    08:00 +1°C° 0.1 mm 4 m/S 741 mmHg 93%
    09:00 +1°C° 0.1 mm 4 m/S 741 mmHg 94%
    10:00 +3°C° 0 mm 4 m/S 741 mmHg 93%
    11:00 +3°C° 0 mm 4 m/S 741 mmHg 92%
    12:00 +4°C° 0 mm 3 m/S 741 mmHg 92%
    13:00 +4°C° 0 mm 3 m/S 741 mmHg 93%
    14:00 +4°C° 0 mm 3 m/S 741 mmHg 94%
    15:00 +5°C° 0 mm 2 m/S 741 mmHg 94%
    16:00 +5°C° 0.1 mm 2 m/S 741 mmHg 95%
    17:00 +3°C° 0.1 mm 3 m/S 742 mmHg 96%
    18:00 +3°C° 0.1 mm 3 m/S 742 mmHg 96%
    19:00 +4°C° 0 mm 2 m/S 742 mmHg 96%
    20:00 +4°C° 0 mm 2 m/S 743 mmHg 96%
    21:00 +4°C° 0 mm 2 m/S 743 mmHg 95%
    22:00 +4°C° 0 mm 2 m/S 744 mmHg 95%
    23:00 +4°C° 0 mm 1 m/S 744 mmHg 95%

    übermorgen, 20 Januar, Sonntag

    Zeit Temperatur Niederschläge Wind Luftdruck Luftfeuchtigkeit
    00:00 +4°C° 0 mm 1 m/S 744 mmHg 95%
    01:00 +4°C° 0 mm 1 m/S 745 mmHg 94%
    02:00 +4°C° 0 mm 1 m/S 745 mmHg 94%
    03:00 +4°C° 0 mm 1 m/S 745 mmHg 94%
    04:00 +4°C° 0 mm 1 m/S 746 mmHg 94%
    05:00 +4°C° 0 mm 1 m/S 746 mmHg 93%
    06:00 +4°C° 0 mm 1 m/S 747 mmHg 93%
    07:00 +3°C° 0 mm 0 m/S 747 mmHg 93%
    08:00 +3°C° 0 mm 0 m/S 748 mmHg 92%
    09:00 +3°C° 0 mm 0 m/S 749 mmHg 92%
    10:00 +4°C° 0 mm 0 m/S 749 mmHg 90%
    11:00 +4°C° 0 mm 0 m/S 750 mmHg 88%
    12:00 +5°C° 0 mm 0 m/S 750 mmHg 86%
    13:00 +6°C° 0 mm 1 m/S 750 mmHg 86%
    14:00 +6°C° 0 mm 1 m/S 750 mmHg 85%
    15:00 +6°C° 0 mm 1 m/S 750 mmHg 85%
    16:00 +6°C° 0 mm 1 m/S 751 mmHg 87%
    17:00 +5°C° 0 mm 1 m/S 752 mmHg 88%
    18:00 +5°C° 0 mm 1 m/S 752 mmHg 90%
    19:00 +4°C° 0 mm 1 m/S 753 mmHg 91%
    20:00 +4°C° 0 mm 1 m/S 753 mmHg 92%
    21:00 +3°C° 0 mm 1 m/S 754 mmHg 93%
    22:00 +3°C° 0 mm 1 m/S 754 mmHg 94%
    23:00 +3°C° 0 mm 1 m/S 755 mmHg 95%

    21 Januar, Montag

    Zeit Temperatur Niederschläge Wind Luftdruck Luftfeuchtigkeit
    00:00 +3°C° 0 mm 1 m/S 755 mmHg 96%
    01:00 +3°C° 0 mm 1 m/S 755 mmHg 96%
    02:00 +4°C° 0 mm 1 m/S 755 mmHg 96%
    03:00 +4°C° 0 mm 1 m/S 755 mmHg 96%
    04:00 +4°C° 0 mm 1 m/S 755 mmHg 96%
    05:00 +4°C° 0 mm 1 m/S 755 mmHg 95%
    06:00 +3°C° 0 mm 2 m/S 755 mmHg 95%
    07:00 +3°C° 0 mm 2 m/S 755 mmHg 94%
    08:00 +3°C° 0 mm 2 m/S 755 mmHg 93%
    09:00 +2°C° 0 mm 2 m/S 755 mmHg 92%
    10:00 +3°C° 0 mm 2 m/S 755 mmHg 87%
    11:00 +3°C° 0 mm 3 m/S 754 mmHg 82%
    12:00 +3°C° 0 mm 3 m/S 754 mmHg 77%
    13:00 +3°C° 0 mm 3 m/S 753 mmHg 76%
    14:00 +3°C° 0 mm 4 m/S 752 mmHg 75%
    15:00 +3°C° 0 mm 4 m/S 751 mmHg 75%
    16:00 +2°C° 0.1 mm 5 m/S 749 mmHg 77%
    17:00 +2°C° 0.1 mm 6 m/S 748 mmHg 78%
    18:00 +2°C° 0.1 mm 6 m/S 747 mmHg 80%
    19:00 +2°C° 0.3 mm 7 m/S 745 mmHg 82%
    20:00 +2°C° 0.3 mm 8 m/S 744 mmHg 83%
    21:00 +2°C° 0.3 mm 9 m/S 742 mmHg 85%
    22:00 +2°C° 1.5 mm 8 m/S 741 mmHg 83%
    23:00 +1°C° 1.5 mm 8 m/S 741 mmHg 81%

    22 Januar, Dienstag

    Zeit Temperatur Niederschläge Wind Luftdruck Luftfeuchtigkeit
    00:00 0°C° 1.5 mm 7 m/S 740 mmHg 79%
    01:00 -1°C° 0 mm 6 m/S 740 mmHg 76%
    02:00 -1°C° 0 mm 6 m/S 740 mmHg 73%
    03:00 -1°C° 0 mm 5 m/S 739 mmHg 71%
    04:00 -1°C° 0 mm 5 m/S 739 mmHg 73%
    05:00 -1°C° 0 mm 5 m/S 739 mmHg 75%
    06:00 -2°C° 0 mm 5 m/S 738 mmHg 77%
    07:00 -1°C° 0.1 mm 4 m/S 738 mmHg 78%
    08:00 -1°C° 0.1 mm 4 m/S 738 mmHg 78%
    09:00 -1°C° 0.1 mm 4 m/S 737 mmHg 79%
    10:00 0°C° 0 mm 5 m/S 737 mmHg 76%
    11:00 +1°C° 0 mm 5 m/S 737 mmHg 72%
    12:00 +2°C° 0 mm 6 m/S 737 mmHg 69%
    13:00 +1°C° 0.1 mm 6 m/S 737 mmHg 69%
    14:00 +1°C° 0.1 mm 6 m/S 736 mmHg 68%
    15:00 +1°C° 0.1 mm 5 m/S 736 mmHg 68%
    16:00 0°C° 0 mm 5 m/S 736 mmHg 71%
    17:00 -1°C° 0 mm 4 m/S 736 mmHg 75%
    18:00 -1°C° 0 mm 3 m/S 735 mmHg 79%
    19:00 -1°C° 0 mm 3 m/S 735 mmHg 80%
    20:00 -1°C° 0 mm 3 m/S 735 mmHg 82%
    21:00 -1°C° 0 mm 3 m/S 735 mmHg 83%
    22:00 -1°C° 0 mm 3 m/S 735 mmHg 83%
    23:00 -1°C° 0 mm 3 m/S 735 mmHg 84%

    23 Januar, Mittwoch

    Zeit Temperatur Niederschläge Wind Luftdruck Luftfeuchtigkeit
    00:00 -1°C° 0 mm 3 m/S 734 mmHg 84%
    01:00 -1°C° 0 mm 3 m/S 734 mmHg 85%
    02:00 -1°C° 0 mm 3 m/S 734 mmHg 85%
    03:00 -1°C° 0 mm 3 m/S 733 mmHg 85%
    04:00 -1°C° 0.1 mm 2 m/S 733 mmHg 87%
    05:00 -1°C° 0.1 mm 2 m/S 733 mmHg 88%
    06:00 -1°C° 0.1 mm 2 m/S 733 mmHg 90%
    07:00 -1°C° 0 mm 2 m/S 733 mmHg 91%
    08:00 -1°C° 0 mm 2 m/S 734 mmHg 91%
    09:00 -1°C° 0 mm 3 m/S 734 mmHg 92%
    10:00 0°C° 0 mm 3 m/S 735 mmHg 86%
    11:00 0°C° 0 mm 3 m/S 735 mmHg 81%
    12:00 +1°C° 0 mm 3 m/S 735 mmHg 75%
    13:00 +2°C° 0 mm 2 m/S 735 mmHg 74%
    14:00 +2°C° 0 mm 2 m/S 735 mmHg 74%
    15:00 +2°C° 0 mm 2 m/S 735 mmHg 73%
    16:00 +1°C° 0 mm 2 m/S 736 mmHg 76%
    17:00 -1°C° 0 mm 2 m/S 736 mmHg 80%
    18:00 -2°C° 0 mm 2 m/S 736 mmHg 83%
    19:00 -2°C° 0 mm 2 m/S 737 mmHg 84%
    20:00 -2°C° 0 mm 3 m/S 737 mmHg 85%
    21:00 -2°C° 0 mm 3 m/S 738 mmHg 85%
    22:00 -2°C° 0 mm 3 m/S 739 mmHg 85%
    23:00 -2°C° 0 mm 3 m/S 739 mmHg 85%
    Mehr zeigen